Theta_e
302 304 305 304 304 306 306 308 313 315 319 319 318 319 318 316 315 315 317 317 320 322 325 327 326 328 328 324 325 328 326 324 325 326 324 322 323 323 321 317 320 321 314 323
302 304 305 305 305 306 306 308 309 316 318 321 320 318 319 318 318 317 318 319 318 317 319 321 324 327 324 323 324 325 324 325 324 324 320 323 324 324 324 321 317 322 325 324
302 304 305 305 305 305 305 304 307 311 316 312 318 319 319 320 317 317 316 318 318 321 324 324 325 327 322 319 322 321 322 322 323 325 322 320 322 323 321 321 316 323 323 322
302 303 305 305 305 305 305 302 307 309 314 319 315 315 316 318 318 316 315 316 317 318 317 321 324 325 324 321 320 319 321 323 321 320 319 320 320 320 320 321 322 323 322 320
302 303 304 305 305 305 306 302 307 307 309 314 317 316 317 316 316 316 316 316 316 315 316 316 318 324 324 324 321 321 317 322 318 318 317 320 322 319 319 321 321 321 320 319
301 303 305 304 305 304 305 304 305 308 308 311 314 316 316 316 315 314 314 314 314 315 315 314 315 317 319 319 318 319 316 316 318 325 318 320 320 316 319 320 318 319 319 314
302 302 304 304 305 304 304 304 306 308 309 312 314 315 314 314 314 315 315 313 314 314 312 313 314 314 316 317 317 315 313 316 316 324 321 326 318 314 315 317 316 307 303 301
302 303 304 304 304 305 304 304 304 305 302 308 313 314 315 314 315 316 315 314 312 310 314 311 318 317 318 316 312 314 312 315 319 323 324 320 319 317 311 312 309 302 302 301
303 303 303 304 304 304 304 304 303 304 307 307 311 314 314 315 315 315 313 307 306 312 306 313 320 320 321 322 316 309 310 311 320 316 322 321 312 301 301 305 306 300 300 299
302 303 303 303 304 304 305 303 305 303 304 303 306 310 310 311 311 310 307 309 311 309 306 317 320 321 319 321 320 313 313 312 320 321 323 320 311 300 305 310 311 300 298 297
302 302 303 303 303 303 304 303 304 304 300 301 300 301 309 310 308 309 305 311 308 308 315 317 317 316 316 318 317 315 315 315 313 315 318 320 302 303 307 306 302 301 299 298
302 302 303 303 303 303 304 304 303 305 300 295 298 297 299 300 302 304 304 309 307 311 312 311 310 314 314 316 321 313 318 315 313 313 313 304 303 304 305 303 300 299 297 297
302 302 303 303 303 303 304 304 302 304 294 294 296 295 298 299 301 301 309 307 306 309 307 310 311 315 311 317 316 315 312 312 313 311 310 304 303 303 298 298 298 298 297 296
301 302 303 303 303 303 304 303 302 303 297 302 292 294 296 298 299 301 302 303 303 302 303 307 309 312 309 312 312 314 311 311 308 307 305 306 302 299 299 298 297 295 294 293
302 302 303 303 303 303 304 303 302 302 302 298 294 294 296 297 298 297 299 300 303 304 306 305 308 305 305 302 303 306 309 308 309 310 305 302 299 298 297 295 293 292 292 290
302 302 303 303 303 304 303 301 302 302 301 294 297 293 296 297 299 300 302 302 301 302 303 304 302 302 304 305 307 305 305 304 303 301 301 297 296 293 292 290 289 288 287 285
303 303 303 303 303 303 303 300 302 302 301 297 297 296 296 296 296 296 297 297 298 299 299 300 300 300 302 303 306 300 300 303 298 297 295 293 293 291 290 289 288 285 283 282
303 303 303 304 304 303 302 302 302 302 301 297 296 297 298 296 298 299 296 298 298 298 299 299 300 300 300 304 303 299 298 298 297 295 294 292 289 288 287 287 285 284 283 282
304 303 303 304 303 299 301 301 302 303 301 300 293 298 299 297 298 297 297 298 300 298 299 300 300 301 301 302 302 300 297 298 293 291 290 289 288 286 284 284 283 283 282 282
302 303 297 296 300 301 301 301 300 300 299 294 292 293 298 299 299 299 299 298 299 301 298 297 300 300 299 300 300 299 296 293 291 290 289 288 287 285 283 283 283 282 282 282
298 293 295 297 302 302 298 298 301 299 301 299 293 296 299 296 296 298 296 297 297 300 298 299 299 300 299 300 299 297 294 292 291 290 288 287 286 284 283 283 283 282 281 281
296 296 298 298 298 297 300 301 300 300 298 299 296 298 297 298 295 298 299 299 299 303 297 296 299 300 299 297 295 293 290 288 286 286 285 285 284 283 283 282 283 282 280 280
299 298 296 299 297 300 302 301 302 301 301 298 297 300 300 299 298 300 299 301 300 297 297 299 302 299 296 294 292 289 287 286 285 284 283 283 283 282 282 282 282 282 280 280
298 298 297 300 297 299 297 299 299 297 295 298 300 299 301 299 300 299 301 301 299 301 303 302 299 297 295 292 290 288 286 285 284 284 283 283 283 283 282 282 282 280 279 278
298 297 298 297 294 293 293 294 296 296 298 300 300 298 297 297 298 299 300 301 301 302 302 300 298 295 292 291 289 287 286 285 284 283 282 281 282 281 281 281 280 279 278 277
296 296 294 293 295 292 292 293 296 299 300 300 299 300 300 301 300 301 299 302 302 301 299 297 295 293 291 290 289 287 286 285 284 283 282 281 280 280 280 279 278 278 277 277
300 296 294 296 296 300 299 298 299 300 301 303 301 302 302 299 300 300 299 300 299 297 297 295 293 291 290 288 287 286 285 284 283 282 282 281 281 281 279 279 277 278 277 277
Wind_Speed
28 28 28 24 20 17 14 3 3 12 30 7 6 14 7 5 5 3 4 1 3 2 2 3 2 3 2 5 0 4 3 1 2 6 2 0 4 2 5 4 3 4 4 6
30 31 31 28 25 25 13 3 3 15 17 10 10 5 9 4 5 5 6 6 6 1 3 3 2 2 2 8 4 2 3 1 4 5 3 3 4 4 4 5 3 7 4 9
32 33 33 32 29 29 20 3 1 2 7 2 11 12 11 9 6 3 2 1 3 2 2 4 3 3 5 4 4 5 7 3 7 6 2 3 3 4 4 5 3 9 11 27
34 36 37 36 34 32 25 3 5 4 5 11 8 14 8 12 7 5 3 4 8 4 2 4 3 2 1 3 3 4 4 3 2 9 5 5 5 6 7 7 13 8 22 23
38 38 39 39 38 35 21 5 3 1 2 8 11 12 16 14 17 8 9 6 5 7 7 7 5 2 3 4 1 3 3 3 4 7 8 8 9 8 10 14 16 16 22 25
39 41 43 43 43 42 10 18 1 2 3 5 11 13 10 14 11 9 14 6 5 7 15 9 8 7 5 5 7 6 5 5 3 16 5 1 9 11 17 13 12 9 12 10
43 44 46 47 48 52 13 14 4 3 4 9 13 9 20 17 13 18 8 12 8 3 4 4 2 3 2 4 5 5 7 5 3 6 2 12 4 4 6 12 10 3 2 1
46 47 49 50 50 51 30 18 10 3 2 3 7 8 13 17 15 15 16 4 5 8 4 2 4 2 3 5 2 4 5 4 3 3 6 10 9 7 5 6 4 0 4 2
49 50 51 52 51 50 38 20 28 2 3 4 1 5 6 7 10 7 1 3 3 3 3 3 5 5 3 3 1 4 2 1 6 3 4 6 1 3 2 3 5 4 5 3
52 52 52 53 53 50 44 30 24 10 1 1 2 3 5 5 4 3 3 2 2 2 3 4 4 4 4 4 5 5 2 1 12 11 6 6 3 3 1 4 2 4 5 5
54 54 53 53 54 52 49 28 28 18 3 2 2 3 1 1 3 5 4 3 1 1 4 3 3 3 6 4 5 6 7 6 4 3 3 9 3 2 5 1 0 2 2 3
55 53 52 52 51 52 50 12 42 20 4 2 2 2 4 4 0 4 1 1 5 4 2 2 2 3 3 3 3 2 3 6 4 7 4 3 4 3 3 3 1 3 6 8
55 55 51 53 52 51 51 23 38 20 4 2 2 3 3 3 3 2 3 2 2 1 1 2 2 4 2 4 6 4 2 3 3 2 5 5 4 1 3 8 10 11 11 11
55 56 52 52 51 51 49 21 38 34 3 2 3 1 3 5 7 4 6 1 1 3 1 1 3 3 3 2 2 4 4 7 5 2 3 5 3 6 10 12 11 13 13 12
54 53 51 51 51 49 46 25 39 40 13 6 3 2 5 3 8 12 11 9 2 2 1 2 3 1 2 1 1 3 4 5 5 5 7 5 6 9 10 12 11 10 10 11
53 53 51 50 49 48 29 3 35 42 35 4 3 2 1 3 2 4 5 7 2 0 2 2 1 1 3 4 4 5 9 7 5 4 10 13 11 10 11 13 11 12 12 12
51 51 51 50 49 44 12 6 15 43 30 3 2 1 1 3 4 2 2 2 2 2 1 2 2 2 3 2 3 4 5 8 15 17 16 8 8 7 10 13 15 17 15 12
51 49 49 48 47 28 10 8 37 47 13 3 3 2 3 6 2 2 1 1 1 1 2 1 2 2 2 4 6 8 13 15 13 7 7 11 15 13 9 13 13 9 7 7
51 50 47 43 19 4 9 24 43 31 6 5 3 7 5 5 2 2 1 1 2 2 2 2 3 2 5 6 7 13 16 8 15 13 14 13 13 11 8 8 7 8 6 6
48 44 7 3 13 42 36 12 2 2 1 2 3 3 4 4 3 2 3 2 2 2 4 4 3 3 8 5 8 13 10 16 18 17 10 11 11 10 8 7 7 7 7 7
8 3 2 16 48 11 3 4 5 3 5 4 4 4 6 2 3 3 3 3 3 3 4 6 3 4 4 7 16 15 14 13 7 9 11 9 13 12 10 8 10 10 6 5
12 18 13 7 4 3 5 4 4 4 6 6 7 5 4 4 3 3 4 4 3 5 6 3 3 3 12 15 15 15 14 12 12 17 15 16 16 15 12 11 10 10 5 4
28 6 3 3 1 5 8 7 4 5 5 5 5 6 4 3 2 2 4 6 6 4 2 4 4 9 12 15 15 14 15 18 18 15 17 17 16 16 15 10 11 10 3 1
3 4 6 4 4 4 4 6 7 5 5 11 12 6 4 3 3 3 4 4 3 4 5 6 6 16 16 14 14 16 15 14 15 14 17 16 15 13 11 11 12 7 6 9
3 2 5 3 2 2 3 4 5 4 11 12 7 3 3 3 4 4 4 5 5 7 5 4 9 16 17 17 16 15 14 12 12 16 14 16 16 14 12 15 10 10 12 9
2 2 4 1 3 1 3 2 3 7 12 8 4 4 4 4 3 5 7 6 7 4 3 5 13 17 16 16 15 13 17 18 17 17 17 16 17 15 17 12 12 12 9 9
3 1 1 3 2 4 4 4 5 11 14 7 4 7 7 4 4 5 5 5 3 5 7 10 15 17 16 14 13 17 19 18 18 18 17 17 17 19 16 11 12 8 6 7
Wind_Direction
229 226 223 217 210 199 186 202 217 191 168 187 204 216 144 175 196 269 245 310 246 245 333 319 284 250 46 326 70 92 57 355 218 215 247 19 334 181 168 133 246 231 209 254
226 224 220 214 205 193 159 206 251 180 170 206 212 209 205 197 181 201 202 211 215 213 274 295 254 352 357 341 74 86 158 76 337 343 46 20 210 204 155 109 78 217 263 274
224 220 218 212 204 194 181 136 204 274 206 204 197 185 195 196 205 282 57 321 32 67 321 211 274 345 10 10 56 54 130 137 177 207 260 113 185 207 201 154 154 279 258 281
223 217 215 211 205 193 184 179 224 220 202 198 212 202 185 196 187 208 169 242 207 163 303 329 246 173 214 38 22 61 75 170 114 283 238 195 209 203 223 219 248 250 280 279
221 218 214 210 204 191 195 166 171 192 277 155 186 194 208 193 211 172 221 204 157 165 194 201 258 233 191 204 34 146 184 210 155 244 258 233 240 221 232 247 259 264 268 274
221 216 212 210 202 191 192 210 227 117 191 183 190 212 195 198 177 233 231 186 205 246 261 231 232 245 236 226 167 180 153 151 124 284 210 25 269 201 219 234 228 232 261 276
218 217 215 209 206 200 199 186 142 138 251 207 208 191 214 220 214 228 225 214 185 216 101 94 46 38 298 222 231 163 161 141 162 268 103 264 285 234 231 232 240 215 341 49
215 215 213 211 210 206 200 189 190 166 248 205 204 183 188 204 214 215 228 185 186 145 112 41 279 303 313 217 57 216 155 142 222 240 255 289 275 264 180 187 230 168 181 234
212 213 213 211 209 208 198 202 199 179 111 227 171 174 162 193 206 217 211 77 67 142 126 122 229 241 212 244 257 39 42 55 211 136 233 259 156 130 62 50 273 184 158 217
211 211 210 209 209 205 199 200 197 186 232 341 333 194 181 149 139 139 110 140 82 35 146 212 220 227 208 213 205 172 164 235 235 242 254 270 230 145 67 112 267 178 195 198
210 211 210 207 208 207 197 198 201 190 147 227 26 5 336 29 134 153 183 104 6 85 185 200 213 222 215 199 204 193 191 183 202 203 243 269 146 101 171 217 69 290 340 346
209 209 208 208 208 208 197 198 199 202 131 179 138 115 99 59 145 121 143 240 179 178 155 198 180 197 187 178 248 115 211 202 187 200 214 124 51 102 299 337 196 19 60 51
206 207 204 205 206 208 199 193 183 186 116 75 126 204 170 129 119 145 133 248 313 25 17 148 272 232 143 199 230 173 279 153 221 138 179 141 114 32 43 63 90 76 68 65
205 204 203 202 203 204 197 183 181 186 107 173 246 121 212 190 223 224 211 37 197 82 59 209 205 201 188 233 301 202 172 151 170 251 281 113 47 82 103 91 92 88 79 70
202 200 199 199 198 199 193 175 177 184 169 181 148 131 192 209 235 230 196 206 210 176 168 177 232 144 138 345 352 227 202 170 177 220 167 105 106 102 104 100 92 86 92 82
196 195 193 194 195 188 160 132 182 186 191 105 145 334 96 84 150 181 207 200 138 246 188 202 221 1 196 201 220 238 202 176 171 160 112 111 113 98 106 103 99 92 85 78
190 188 188 189 186 172 172 175 168 184 178 97 114 179 156 120 116 92 127 82 129 132 187 224 182 221 200 233 221 226 167 166 121 121 112 108 169 130 120 112 108 101 92 86
182 181 182 177 170 160 143 172 171 166 132 111 135 126 154 181 157 138 204 116 120 157 150 219 216 174 218 250 224 136 119 116 119 114 80 120 123 119 116 116 116 110 104 96
170 170 170 155 154 98 150 154 157 160 127 161 140 150 185 161 126 124 131 193 184 143 173 222 183 186 224 222 175 159 152 138 136 116 115 122 126 128 127 129 127 118 113 88
161 158 117 121 138 129 120 129 86 88 120 103 125 119 142 160 148 144 141 176 187 186 223 140 223 246 243 262 194 156 138 138 137 123 131 138 139 143 142 134 135 129 103 87
117 109 98 133 133 110 97 141 157 130 163 164 155 144 134 192 135 151 194 177 168 210 217 180 219 255 197 147 139 140 142 159 150 117 132 145 145 144 139 138 137 113 127 180
133 116 115 125 93 96 138 159 143 159 188 159 140 149 134 165 155 123 173 188 171 233 139 156 241 225 153 145 139 133 134 132 122 126 126 130 133 139 143 133 134 168 186 199
119 80 102 113 128 129 170 161 136 132 147 159 146 123 130 125 157 128 175 196 214 112 158 227 219 150 156 150 133 126 136 135 126 124 125 128 138 142 136 144 173 174 162 157
107 118 118 168 153 200 181 158 146 167 149 145 149 125 136 146 155 155 187 190 140 203 226 229 167 171 158 144 137 139 148 141 138 137 138 142 145 138 154 168 163 167 152 133
102 131 130 165 176 186 160 114 108 146 145 143 129 86 114 153 159 193 164 179 222 218 226 200 175 161 149 142 146 146 145 144 141 144 146 142 148 149 150 152 151 159 146 136
110 127 98 94 89 38 77 110 110 147 148 125 84 138 164 194 177 173 207 193 218 223 193 143 145 150 147 143 147 148 147 146 144 149 146 153 155 149 146 149 158 150 142 137
107 148 115 149 111 159 151 135 144 155 153 152 146 165 195 124 189 207 199 212 212 144 136 144 148 149 145 140 139 144 145 145 146 142 157 162 155 152 146 151 168 153 137 121